This is the latest recevied weather packets stored in our database for station/object M0TJX-1. If no packets are shown the sender has not sent any weather packets the latest 10 day(s).
| Time | Temp. | Humidity | Pressure | Rain* | Wind** | Luminosity | Snow |
|---|---|---|---|---|---|---|---|
| 1777402707 | 12.22° C | 55% | 1024.3 hPa | 0 mm | - | - | - |
| 1777401807 | 12.78° C | 55% | 1024.3 hPa | 0 mm | - | - | - |
| 1777400907 | 13.33° C | 56% | 1024.4 hPa | 0 mm | - | - | - |
| 1777400007 | 13.33° C | 58% | 1024.2 hPa | 0 mm | - | - | - |
| 1777399107 | 13.33° C | 59% | 1024.1 hPa | 0 mm | - | - | - |
| 1777398207 | 13.89° C | 63% | 1024.1 hPa | 0 mm | - | - | - |
| 1777397307 | 13.33° C | 64% | 1023.9 hPa | 0 mm | - | - | - |
| 1777396407 | 13.89° C | 63% | 1024 hPa | 0 mm | - | - | - |
| 1777395507 | 13.89° C | 64% | 1024.2 hPa | 0 mm | - | - | - |
| 1777394607 | 13.89° C | 65% | 1024.3 hPa | 0 mm | - | - | - |
| 1777393707 | 13.89° C | 65% | 1024.3 hPa | 0 mm | - | - | - |
| 1777392807 | 13.89° C | 66% | 1024.3 hPa | 0 mm | - | - | - |
| 1777391907 | 13.89° C | 67% | 1024.3 hPa | 0 mm | - | - | - |
| 1777391007 | 13.89° C | 67% | 1024.2 hPa | 0 mm | - | - | - |
| 1777390107 | 13.33° C | 67% | 1024.4 hPa | 0 mm | - | - | - |
| 1777389207 | 13.33° C | 68% | 1024.5 hPa | 0 mm | - | - | - |
| 1777388307 | 12.78° C | 69% | 1024.8 hPa | 0 mm | - | - | - |
| 1777387407 | 12.78° C | 70% | 1024.6 hPa | 0 mm | - | - | - |
| 1777386507 | 12.22° C | 72% | 1024.8 hPa | 0 mm | - | - | - |
| 1777385607 | 11.67° C | 75% | 1025.1 hPa | 0 mm | - | - | - |
| 1777384707 | 10.56° C | 79% | 1025.4 hPa | 0 mm | - | - | - |
| 1777383807 | 10.56° C | 80% | 1025.4 hPa | 0 mm | - | - | - |
| 1777382907 | 10° C | 83% | 1025.6 hPa | 0 mm | - | - | - |
| 1777382007 | 9.44° C | 85% | 1025.8 hPa | 0 mm | - | - | - |
| 1777381107 | 9.44° C | 87% | 1025.9 hPa | 0 mm | - | - | - |
* Rain latest hour (hover to see other rain measurements)
** Current wind speed in m/s (hover to see current wind gust speed)